STARLINK-36375

Last updated on Wed Mar 25 2026 00:02:05 GMT+0000 (Coordinated Universal Time)

1 67920U 26036S 26083.50002314 -.03354433 00000+0 -12434+0 0 9994 2 67920 42.9989 162.0641 0000830 286.9052 16.8279 15.30921368 6029
UTC large
Height (km)
Speed (km/s)
/
Latitude / Longitude
Inclination (degrees)
Orbital Period (minutes)
Azimuth
Elevation
Range (km)
Doppler Factor

Next 0 passes for location: London (51.5072 / 0.1276)

Sorry there are no passes over London.